Wind_Speed
38 39 40 44 46 46 38 34 32 33 29 31 25 16 17 24 27 26 26 27 28 28 26 21 15 13 13 17 20 21 25 28 30 32 37 39 44 47 50 52 54 58 59
36 39 42 48 46 44 42 38 39 32 26 26 25 18 20 22 30 30 28 24 33 30 22 18 20 18 19 18 19 23 28 28 31 37 40 43 47 48 52 54 57 61 65
40 42 48 46 53 51 49 43 38 33 35 31 32 31 31 29 35 33 35 31 36 34 31 25 24 25 25 27 29 33 35 36 39 41 42 46 50 53 55 57 61 63 65
48 50 53 50 51 42 42 47 42 39 38 37 33 33 38 32 33 40 36 40 41 37 36 31 31 30 31 31 31 36 38 42 44 46 50 54 56 61 60 61 64 63 64
54 53 59 58 57 53 45 36 29 35 37 37 36 29 29 37 34 42 41 43 46 43 39 37 36 36 36 33 38 41 42 44 48 50 57 58 61 63 64 64 65 67 67
55 60 61 62 61 59 48 36 28 28 29 34 32 31 30 34 39 43 39 43 48 47 45 43 39 34 38 41 43 48 49 48 50 54 61 62 67 67 67 66 70 66 67
60 62 64 65 67 60 59 58 43 39 38 40 39 41 32 37 41 40 40 46 51 50 50 47 39 43 43 48 50 55 51 49 54 56 58 63 68 70 70 70 70 69 67
57 62 63 63 61 58 59 57 56 55 49 44 41 44 42 34 42 47 46 49 50 53 52 50 49 48 50 53 53 55 54 55 59 62 64 67 70 72 73 76 73 69 64
67 63 62 62 63 62 64 61 58 53 51 53 51 57 49 43 46 49 47 46 55 56 52 56 57 56 57 59 61 60 62 58 64 66 68 72 72 76 77 77 71 68 64
68 71 62 65 62 62 57 60 62 61 51 49 48 49 50 49 46 50 50 46 48 50 52 55 60 61 61 63 68 68 62 61 68 70 72 73 77 76 79 73 68 68 64
43 57 60 53 56 52 57 56 57 58 62 58 52 55 50 54 51 54 55 53 51 51 49 54 58 63 65 67 66 66 64 67 71 72 74 77 79 79 77 72 69 62 61
21 35 49 48 47 48 47 44 43 52 54 60 60 58 57 55 55 60 58 57 56 57 57 58 59 60 65 68 67 68 69 71 73 73 75 77 77 77 72 66 62 62 61
16 18 34 43 43 47 48 44 46 48 51 51 56 62 60 58 55 54 58 56 57 55 57 59 62 66 66 66 69 69 71 76 78 78 78 79 78 76 63 60 63 61 62
19 15 27 41 40 42 46 47 50 45 49 53 54 54 56 59 60 55 56 57 60 62 64 67 66 69 68 71 71 74 77 77 78 79 80 78 75 64 61 61 62 64 61
17 13 16 24 36 37 47 50 47 45 47 51 57 60 61 60 60 62 65 69 68 67 68 70 75 76 74 75 78 79 78 81 83 81 74 69 61 61 63 61 59 59 62
19 18 14 13 27 29 35 44 46 44 51 51 52 56 63 69 71 69 73 71 70 73 76 79 78 78 77 78 78 79 79 77 72 69 66 62 63 64 60 61 62 63 65
17 17 15 15 14 18 33 38 42 48 49 53 54 56 58 61 68 73 74 76 77 72 71 79 78 79 79 78 80 80 73 69 68 65 66 66 65 63 63 65 69 69 70
21 15 13 10 10 13 15 17 26 42 48 53 59 62 64 64 66 69 71 72 75 76 75 77 76 77 81 78 73 69 69 68 67 67 69 70 66 67 69 68 69 68 61
25 21 17 14 17 13 11 9 12 16 20 26 31 37 47 57 66 69 70 71 74 75 75 74 66 66 60 60 61 62 65 67 67 70 72 73 70 69 67 64 60 61 63
32 28 29 26 22 29 28 25 23 24 25 27 24 30 37 40 42 43 45 48 53 56 59 60 57 63 64 65 68 70 69 69 70 71 72 69 63 62 61 63 66 69 71
34 34 36 35 32 31 35 36 35 36 32 35 37 37 34 39 44 46 47 50 49 48 46 45 45 48 50 50 53 56 52 56 56 59 61 64 67 70 72 73 75 76 79
42 41 40 41 38 38 40 40 40 43 41 46 43 45 43 36 40 45 49 54 54 54 54 54 53 54 56 58 59 63 64 66 64 66 68 70 74 74 76 76 77 79 81
43 41 41 40 43 45 43 43 39 43 45 47 50 47 45 46 49 49 57 59 57 59 60 61 59 58 58 60 63 66 68 69 71 71 72 72 75 76 76 78 82 83 84
50 53 52 55 53 53 52 45 46 45 46 51 51 52 51 55 63 62 64 60 59 62 62 62 62 61 64 66 68 68 70 72 74 76 78 79 79 81 83 85 86 87 88
60 61 61 60 61 57 60 59 55 53 54 55 56 65 61 65 65 67 70 74 69 63 58 62 68 70 69 69 71 73 74 76 78 77 73 72 76 77 83 86 86 87 90
63 61 63 62 64 65 66 62 62 65 63 66 68 67 69 74 68 69 71 67 67 67 66 68 74 73 70 71 72 74 77 80 78 80 81 83 82 85 90 93 96 98 99
Wind_Direction
215 208 210 215 219 230 236 248 256 262 259 271 265 285 286 245 229 237 247 251 221 207 208 212 232 258 259 262 263 274 279 287 297 301 306 306 310 312 313 310 315 316 315
205 212 216 222 239 241 242 248 254 261 249 254 255 283 286 275 239 240 243 244 208 210 222 241 250 258 261 269 267 279 284 290 295 304 308 306 308 309 309 310 313 311 312
200 204 209 224 234 235 244 247 256 249 252 253 262 270 282 279 252 240 236 222 208 220 230 249 254 259 265 272 273 279 284 288 288 293 305 310 309 308 306 310 312 315 315
209 207 221 225 228 235 244 250 248 247 251 249 247 264 274 275 260 242 236 220 216 231 236 247 255 262 265 268 278 281 286 287 288 292 296 302 308 308 309 309 312 315 316
216 218 216 222 229 233 235 239 236 238 249 253 256 259 266 272 267 251 241 228 222 230 239 246 253 261 269 270 282 284 283 284 288 294 293 299 305 303 305 309 312 313 315
215 218 218 220 223 228 229 232 231 243 255 250 259 261 263 280 260 243 246 234 226 234 242 250 259 283 283 283 282 282 284 288 297 293 290 295 298 302 304 309 310 314 318
216 220 219 224 227 231 233 242 241 247 260 256 264 269 263 276 263 237 240 239 232 236 245 251 267 273 276 276 281 289 288 290 294 293 291 292 296 300 303 308 310 315 317
221 224 227 234 236 241 246 249 251 253 255 257 255 262 272 263 251 246 243 237 237 240 247 253 261 270 274 281 286 289 288 287 291 290 294 297 297 302 303 306 311 315 311
221 223 229 234 239 243 249 250 252 250 254 256 254 264 263 255 254 248 249 246 245 246 251 260 267 272 278 279 284 284 284 284 288 291 293 296 300 301 303 309 312 310 302
229 231 233 232 239 240 246 248 249 250 249 247 249 248 253 251 249 248 249 250 250 253 259 263 264 270 276 278 281 285 285 286 287 290 294 297 298 300 304 309 307 302 296
236 233 235 239 242 242 246 248 250 251 247 247 247 245 253 247 249 252 255 252 252 256 260 268 269 275 280 280 280 282 285 285 288 292 293 296 297 301 304 306 302 293 291
268 251 239 233 236 235 238 249 255 253 249 246 243 242 249 247 245 252 254 259 261 260 267 270 274 279 285 281 280 283 285 287 288 290 292 295 299 303 303 297 288 289 295
297 266 246 241 238 247 249 256 260 256 248 246 242 242 246 250 251 253 255 259 263 268 271 271 273 277 279 282 283 283 286 287 287 287 292 298 300 300 292 287 289 294 295
331 294 240 236 249 246 250 255 259 263 251 239 239 245 248 250 254 252 256 261 264 264 269 271 274 277 278 278 279 279 284 286 287 290 295 298 296 287 286 289 291 291 290
333 334 286 260 250 249 247 250 256 260 254 248 243 245 247 248 252 254 256 259 261 265 269 272 276 276 277 279 280 281 286 292 295 294 293 288 285 285 288 289 288 288 290
338 322 318 282 257 261 255 254 257 256 253 253 254 252 250 252 254 258 258 260 265 268 268 271 272 274 277 278 282 288 288 289 287 287 284 283 285 287 287 286 286 288 288
314 330 312 300 304 260 251 256 259 260 259 257 257 259 261 261 259 262 263 265 268 271 272 273 275 279 282 282 284 286 283 278 277 279 280 283 287 285 285 285 284 285 285
303 300 315 294 293 287 288 281 263 259 258 259 259 260 262 266 266 267 269 269 272 274 274 277 278 279 282 282 281 277 274 276 278 280 281 284 283 283 283 284 284 284 287
295 292 301 275 288 292 303 326 326 300 294 290 281 277 273 269 267 267 269 272 275 276 277 277 279 280 279 278 278 278 277 280 281 280 281 283 282 282 282 283 285 286 287
289 286 290 289 284 283 291 290 300 313 310 318 310 295 287 283 284 283 281 279 278 278 277 277 278 278 278 277 277 278 281 284 281 280 281 283 284 284 285 286 285 285 287
281 283 284 286 284 292 296 297 291 287 306 308 304 314 311 294 285 283 282 280 279 279 281 282 279 278 281 279 281 283 285 284 286 284 286 288 288 287 286 287 288 289 289
274 276 279 283 284 287 293 292 290 289 295 303 300 302 311 312 292 285 284 282 282 282 279 278 277 278 280 281 282 282 283 284 284 285 286 286 287 289 289 291 291 290 291
277 277 274 278 279 280 282 285 287 288 293 296 299 299 307 306 308 304 308 298 281 281 281 281 280 280 279 281 281 281 283 284 284 285 286 287 286 286 287 287 288 289 290
279 280 281 281 282 283 277 275 277 282 288 292 295 300 301 303 306 307 307 305 292 283 278 278 278 277 280 280 281 280 280 282 283 284 285 285 286 287 286 287 286 287 287
274 275 278 278 281 283 283 280 274 279 288 290 290 300 299 306 304 305 306 304 297 290 287 286 281 278 278 278 279 280 281 282 285 285 285 287 289 286 286 284 284 286 289
274 273 277 275 276 279 279 275 277 290 294 296 298 297 300 304 296 302 300 294 293 290 286 288 293 287 284 281 279 279 281 282 283 283 283 284 289 289 292 291 292 292 292
Height
10661 10665 10670 10672 10676 10683 10689 10694 10695 10698 10702 10703 10707 10707 10706 10708 10708 10709 10710 10711 10713 10716 10719 10720 10722 10724 10726 10727 10728 10728 10728 10728 10727 10727 10725 10723 10721 10718 10714 10710 10706 10701 10697
10657 10662 10667 10670 10673 10676 10682 10689 10692 10693 10696 10698 10701 10701 10702 10703 10704 10704 10706 10706 10710 10713 10715 10716 10717 10718 10720 10721 10721 10722 10722 10721 10720 10720 10718 10716 10713 10710 10706 10702 10698 10694 10689
10650 10656 10661 10666 10667 10671 10675 10682 10688 10686 10687 10692 10696 10697 10698 10698 10699 10699 10700 10702 10705 10707 10710 10711 10712 10713 10713 10714 10714 10716 10716 10714 10713 10712 10710 10708 10705 10702 10698 10694 10690 10684 10679
10645 10649 10653 10656 10661 10665 10669 10674 10683 10680 10680 10683 10688 10691 10693 10692 10693 10694 10695 10697 10699 10702 10703 10704 10706 10707 10707 10707 10708 10708 10708 10706 10705 10704 10702 10699 10696 10692 10688 10684 10679 10673 10668
10637 10641 10645 10649 10655 10658 10664 10668 10673 10676 10674 10677 10680 10683 10686 10686 10686 10688 10689 10691 10693 10695 10697 10698 10699 10700 10700 10700 10701 10700 10700 10698 10696 10694 10692 10689 10686 10682 10678 10674 10667 10662 10657
10630 10633 10637 10643 10645 10650 10656 10661 10665 10670 10670 10672 10673 10677 10679 10680 10680 10681 10684 10685 10687 10689 10689 10691 10694 10694 10693 10693 10692 10692 10689 10689 10687 10685 10682 10679 10675 10671 10667 10662 10656 10651 10645
10622 10628 10631 10635 10638 10642 10649 10655 10660 10664 10665 10665 10666 10669 10672 10675 10674 10674 10675 10677 10680 10680 10682 10684 10687 10686 10686 10684 10683 10681 10680 10678 10677 10675 10672 10668 10664 10660 10656 10651 10645 10639 10634
10613 10619 10624 10628 10633 10637 10641 10646 10650 10655 10659 10658 10659 10660 10663 10667 10667 10668 10668 10671 10673 10674 10675 10677 10677 10677 10676 10674 10674 10671 10670 10668 10665 10662 10660 10657 10653 10648 10643 10639 10633 10626 10623
10603 10608 10615 10621 10625 10629 10632 10637 10639 10643 10647 10649 10650 10654 10653 10658 10660 10661 10663 10663 10665 10666 10669 10669 10668 10667 10667 10665 10664 10661 10659 10656 10654 10651 10648 10644 10640 10636 10630 10625 10620 10615 10612
10591 10596 10604 10612 10615 10620 10622 10625 10628 10632 10637 10638 10640 10643 10645 10648 10652 10652 10655 10656 10657 10658 10658 10658 10658 10658 10656 10653 10652 10649 10647 10644 10642 10639 10636 10632 10628 10623 10617 10611 10607 10604 10600
10582 10587 10594 10599 10604 10608 10613 10614 10617 10620 10626 10629 10629 10633 10636 10639 10643 10644 10645 10647 10648 10647 10648 10648 10648 10647 10645 10642 10639 10636 10634 10632 10630 10627 10622 10618 10614 10609 10603 10598 10594 10590 10586
10574 10575 10580 10589 10595 10597 10602 10604 10607 10609 10612 10616 10619 10623 10626 10628 10630 10632 10633 10635 10636 10637 10637 10637 10635 10634 10632 10629 10627 10624 10622 10620 10616 10613 10609 10604 10599 10594 10588 10584 10582 10578 10573
10569 10569 10572 10578 10584 10588 10591 10593 10597 10600 10602 10605 10608 10611 10613 10617 10618 10619 10621 10623 10624 10625 10625 10624 10623 10623 10619 10617 10614 10611 10608 10604 10601 10599 10596 10590 10583 10578 10575 10572 10568 10564 10560
10564 10563 10566 10571 10576 10579 10583 10586 10588 10591 10593 10596 10599 10601 10604 10605 10607 10609 10610 10612 10612 10613 10612 10609 10610 10608 10606 10605 10601 10598 10595 10590 10586 10584 10580 10575 10570 10566 10562 10558 10555 10551 10546
10564 10562 10562 10564 10568 10572 10576 10578 10581 10582 10585 10588 10589 10592 10594 10595 10596 10597 10599 10600 10599 10600 10599 10596 10595 10592 10590 10589 10585 10582 10577 10572 10566 10563 10561 10559 10557 10553 10549 10544 10540 10537 10532
10560 10560 10561 10561 10563 10564 10567 10569 10571 10573 10575 10577 10579 10581 10582 10583 10585 10586 10586 10587 10587 10588 10588 10581 10581 10578 10577 10574 10569 10565 10562 10557 10551 10549 10546 10544 10539 10535 10530 10526 10524 10522 10519
10558 10557 10556 10555 10556 10559 10561 10562 10563 10563 10565 10567 10568 10569 10569 10571 10572 10573 10573 10573 10573 10572 10573 10564 10568 10563 10562 10559 10554 10551 10546 10542 10537 10531 10528 10527 10524 10520 10517 10514 10510 10507 10504
10554 10553 10552 10552 10552 10552 10553 10554 10555 10555 10556 10556 10558 10558 10556 10559 10558 10557 10557 10557 10557 10555 10557 10552 10548 10546 10545 10539 10535 10533 10528 10528 10526 10520 10516 10515 10511 10507 10502 10498 10494 10491 10489
10547 10547 10547 10546 10546 10546 10545 10545 10546 10546 10546 10547 10545 10544 10544 10544 10541 10542 10541 10541 10539 10538 10539 10539 10531 10528 10527 10522 10521 10518 10516 10514 10511 10505 10501 10495 10492 10489 10486 10482 10479 10476 10474
10538 10539 10539 10539 10538 10537 10537 10537 10537 10537 10537 10536 10535 10535 10533 10532 10529 10528 10527 10525 10524 10524 10523 10523 10522 10515 10511 10507 10504 10501 10501 10497 10494 10486 10483 10479 10475 10473 10470 10467 10463 10460 10456
10529 10529 10529 10529 10529 10528 10527 10527 10527 10527 10526 10526 10525 10523 10521 10518 10516 10515 10516 10513 10512 10512 10510 10510 10509 10505 10499 10495 10488 10483 10486 10479 10478 10472 10468 10465 10460 10456 10453 10449 10445 10441 10438
10517 10518 10518 10518 10518 10517 10515 10515 10516 10515 10515 10513 10512 10511 10508 10506 10504 10503 10502 10499 10498 10497 10495 10493 10493 10491 10486 10481 10476 10469 10468 10465 10465 10457 10452 10449 10443 10439 10434 10429 10424 10420 10416
10505 10506 10506 10506 10505 10504 10504 10503 10504 10505 10504 10501 10499 10496 10494 10491 10488 10487 10487 10486 10483 10481 10479 10474 10476 10473 10471 10464 10461 10457 10450 10445 10444 10444 10437 10433 10428 10421 10416 10411 10404 10398 10392
10493 10493 10491 10489 10490 10489 10489 10488 10488 10491 10491 10488 10484 10481 10480 10477 10474 10471 10470 10470 10467 10464 10460 10459 10460 10459 10454 10449 10443 10439 10435 10430 10424 10422 10418 10414 10410 10403 10396 10391 10385 10378 10372
10482 10480 10479 10476 10476 10475 10471 10472 10473 10476 10476 10474 10470 10467 10465 10463 10458 10454 10454 10454 10452 10447 10442 10441 10440 10440 10436 10432 10426 10420 10417 10410 10405 10402 10397 10391 10387 10381 10375 10369 10362 10355 10347
10467 10466 10464 10462 10462 10461 10458 10456 10454 10453 10455 10454 10450 10448 10447 10447 10441 10436 10435 10433 10433 10431 10425 10425 10420 10418 10415 10411 10407 10402 10396 10390 10384 10379 10375 10371 10365 10357 10352 10345 10335 10328 10322